#timestamp,LO_Frequency,Hit,StdDev 
1711249215.5,286047001.8,N
1711249235.3,286047002.8,N
1711249255.2,286047001.0,N
1711249275.0,286046998.3,N
1711249275.9,286046998.3,N
1711249295.8,286047002.6,N
1711249315.6,286047002.2,N
1711249335.4,286047004.0,Y
1711249355.3,286047001.9,P
1711249375.1,286047001.8,P
1711249395.9,286047002.3,P
1711249415.7,286047001.4,N
1711249435.5,286047002.7,Y
1711249455.4,286046998.3,P
1711249475.2,286046998.5,N
1711249495.1,286046998.9,N
1711249496.0,286046998.9,N
1711249515.8,286046999.2,N
1711249535.6,286046999.5,N
1711249555.5,286046996.7,Y
1711249575.3,286046998.8,P
1711249595.2,286046998.2,P
1711249615.9,286046998.9,N
1711249635.7,286046998.8,Y
1711249655.6,286047000.6,P
1711249675.4,286047000.9,N
1711249695.2,286046998.1,N
1711249715.1,286047000.7,N
1711249716.0,286047000.7,N
1711249735.8,286047000.9,N
1711249755.7,286046998.9,N
1711249775.5,286046998.3,N
1711249795.3,286047001.2,N
1711249815.2,286047001.1,N
1711249835.0,286047000.6,N
1711249835.9,286047000.6,N
1711249855.8,286046999.9,N
1711249875.6,286046999.8,N
1711249895.4,286047000.1,N
1711249915.3,286046999.8,N
1711249935.1,286047000.4,N
1711249955.8,286046998.5,N
1711249975.7,286047000.6,N
1711249995.5,286047000.4,N
1711250015.4,286047000.1,N
1711250035.2,286047002.7,N
1711250055.0,286047002.0,N
1711250055.9,286047002.0,N
1711250075.8,286047002.1,N
1711250095.6,286047002.1,N
1711250115.4,286047000.2,N
1711250135.3,286046998.4,N
1711250155.1,286046999.1,N
1711250175.9,286046997.2,N
1711250195.7,286046998.9,N
1711250215.5,286047000.6,N
1711250235.4,286046998.5,N
1711250255.2,286046998.9,N
1711250275.0,286046998.9,N
1711250275.9,286046998.9,N
1711250295.8,286047001.0,N
1711250315.6,286047000.5,N
1711250335.5,286047001.0,N
1711250355.3,286046998.4,N
1711250375.1,286047001.2,N
1711250395.9,286047001.0,N
1711250415.7,286047000.3,N
1711250435.6,286047001.0,N
1711250455.4,286046999.1,N
1711250475.2,286046998.8,N
1711250495.1,286047000.2,N
1711250496.0,286047000.2,N
1711250515.8,286046999.7,N
1711250535.6,286047001.9,N
1711250555.5,286047001.4,N
1711250575.3,286047001.8,N
1711250595.2,286047002.6,N
1711250615.9,286046999.9,N
1711250635.7,286047000.2,N
1711250655.6,286047002.1,N
1711250675.4,286047002.5,N
1711250695.3,286047002.3,N
1711250715.1,286046999.7,N
1711250716.0,286046999.7,N
1711250735.8,286047002.5,N
1711250755.7,286046999.7,N
1711250775.5,286047000.4,N
1711250795.4,286046998.7,N
1711250815.2,286046998.7,N
1711250835.0,286046998.6,N
1711250835.9,286046998.6,N
1711250855.8,286047001.1,N
1711250875.6,286047002.7,N
1711250895.4,286047000.4,N
1711250915.3,286047000.2,N
1711250935.1,286047000.6,N
1711250955.9,286047000.5,N
1711250975.7,286047000.3,N
1711250995.5,286047002.8,N
1711251015.4,286047000.4,N
1711251035.2,286047000.6,N
1711251055.0,286046998.3,N
1711251055.9,286046998.3,N
1711251075.8,286046999.1,N
1711251095.6,286046996.8,N
1711251115.5,286046998.7,N
1711251135.3,286047000.7,N
1711251155.1,286047000.5,N
1711251175.9,286047000.7,N
1711251195.7,286046998.7,N
1711251215.5,286046996.9,N
1711251235.4,286046997.3,N
1711251255.2,286046997.0,N
1711251275.1,286046999.6,N
1711251276.0,286046999.6,N
1711251295.8,286046999.4,N
1711251315.6,286046996.5,N
1711251335.5,286046996.9,N
1711251355.3,286046997.3,N
1711251375.2,286046996.9,N
1711251395.9,286046997.4,N
1711251415.7,286046996.7,N
1711251435.6,286046997.0,N
1711251455.4,286046997.7,N
1711251475.3,286046997.4,N
1711251495.1,286046994.9,Y
1711251496.0,286046994.9,P
1711251515.8,286046996.9,N
1711251535.7,286046999.6,N
1711251555.5,286046999.4,N
1711251575.3,286046999.4,N
1711251595.2,286046999.3,N
1711251615.0,286047000.7,N
1711251615.9,286047000.7,N
1711251635.8,286047001.2,N
1711251655.6,286046999.4,N
1711251675.5,286046996.9,N
1711251695.3,286046997.9,N
1711251715.1,286046997.3,N
1711251735.9,286046997.1,N
1711251755.7,286046997.2,N
1711251775.5,286046997.1,N
1711251795.4,286046998.8,N
1711251815.2,286046999.0,N
1711251835.1,286046998.7,N
1711251836.0,286046998.7,N
1711251855.8,286046998.3,N
1711251875.6,286046998.1,N
1711251895.5,286046998.2,N
1711251915.3,286046998.2,N
1711251935.2,286046998.1,N
1711251955.0,286046998.7,N
1711251955.9,286046998.7,N
1711251975.7,286046999.0,N
1711251995.6,286046997.4,N
1711252015.4,286046997.2,N
1711252035.3,286046997.7,N
1711252055.1,286046996.2,Y
1711252075.9,286046997.4,P
1711252095.7,286046997.1,P
1711252115.5,286046999.4,N
1711252135.4,286046999.6,N
1711252155.2,286046997.2,N
1711252175.1,286046997.3,N
1711252176.0,286046997.3,N
1711252195.8,286046997.1,Y
1711252215.7,286046998.4,P
1711252235.5,286047000.3,N
1711252255.3,286047000.7,N
1711252275.2,286046999.4,N
1711252295.0,286047000.8,N
1711252295.9,286047000.8,N
1711252315.8,286047000.6,N
1711252335.6,286047000.1,N
1711252355.4,286047000.0,N
1711252375.3,286047000.2,N
1711252395.1,286047001.6,N
1711252415.8,286047000.4,N
1711252435.7,286047002.8,N
1711252455.5,286047000.3,N
1711252475.4,286047002.7,N
1711252495.2,286047002.8,N
1711252515.0,286047000.5,N
1711252515.9,286047000.5,N
1711252535.8,286047000.8,N
1711252555.6,286046999.9,N
1711252575.4,286047000.5,N
1711252595.3,286047001.2,N
1711252615.1,286046999.7,N
1711252635.9,286046999.7,N
1711252655.7,286046999.8,N
1711252675.5,286047000.3,N
1711252695.4,286047000.9,N
1711252715.2,286047000.0,N
1711252735.1,286047000.3,N
1711252736.0,286047000.3,N
1711252755.8,286047000.5,N
1711252775.6,286046999.9,N
1711252795.5,286047000.1,N
